TimeCDT,TemperatureF,Dew PointF,Humidity,Sea Level PressureIn,VisibilityMPH,Wind Direction,Wind SpeedMPH,Gust SpeedMPH,PrecipitationIn,Events,Conditions,WindDirDegrees,DateUTC
12:53 AM,68.0,62.1,81,30.04,10.0,Calm,Calm,-,N/A,,Clear,0,2013-08-16 05:53:00
1:53 AM,66.9,62.1,84,30.03,10.0,ENE,5.8,-,N/A,,Clear,60,2013-08-16 06:53:00
2:53 AM,66.0,62.1,87,30.04,10.0,ENE,5.8,-,N/A,,Clear,60,2013-08-16 07:53:00
3:53 AM,66.0,61.0,84,30.03,10.0,East,3.5,-,N/A,,Clear,80,2013-08-16 08:53:00
4:53 AM,64.9,60.1,84,30.04,10.0,East,4.6,-,N/A,,Clear,90,2013-08-16 09:53:00
5:53 AM,64.9,59.0,81,30.03,10.0,East,3.5,-,N/A,,Clear,80,2013-08-16 10:53:00
6:53 AM,64.9,60.1,84,30.04,10.0,East,6.9,-,N/A,,Clear,90,2013-08-16 11:53:00
7:53 AM,64.9,60.1,84,30.06,10.0,ENE,6.9,-,N/A,,Partly Cloudy,70,2013-08-16 12:53:00
8:53 AM,66.0,60.1,81,30.08,10.0,ENE,5.8,-,0.00,Rain,Light Rain,70,2013-08-16 13:53:00
9:53 AM,66.0,62.1,87,30.09,10.0,NE,6.9,-,0.01,Rain,Light Rain,50,2013-08-16 14:53:00
10:53 AM,68.0,62.1,81,30.10,10.0,ENE,5.8,-,0.01,,Clear,70,2013-08-16 15:53:00
11:53 AM,70.0,61.0,73,30.11,10.0,NE,6.9,-,N/A,,Clear,50,2013-08-16 16:53:00
12:53 PM,73.0,60.1,64,30.09,10.0,ENE,5.8,-,N/A,,Clear,70,2013-08-16 17:53:00
1:53 PM,73.0,60.1,64,30.08,10.0,East,4.6,-,N/A,,Clear,100,2013-08-16 18:53:00
2:53 PM,78.1,60.1,54,30.07,10.0,East,4.6,-,N/A,,Clear,100,2013-08-16 19:53:00
3:53 PM,79.0,59.0,50,30.05,10.0,Variable,4.6,-,N/A,,Clear,0,2013-08-16 20:53:00
4:53 PM,78.1,59.0,52,30.04,10.0,East,6.9,-,N/A,,Clear,80,2013-08-16 21:53:00
5:53 PM,79.0,59.0,50,30.05,10.0,Calm,Calm,-,N/A,,Partly Cloudy,0,2013-08-16 22:53:00
6:53 PM,77.0,61.0,58,30.04,10.0,East,5.8,-,N/A,,Mostly Cloudy,80,2013-08-16 23:53:00
7:53 PM,73.9,60.1,62,30.05,10.0,ESE,4.6,-,N/A,,Partly Cloudy,110,2013-08-17 00:53:00
8:53 PM,71.1,62.1,73,30.06,10.0,Calm,Calm,-,N/A,,Clear,0,2013-08-17 01:53:00
9:53 PM,70.0,62.1,76,30.08,10.0,Calm,Calm,-,N/A,,Clear,0,2013-08-17 02:53:00
10:53 PM,68.0,62.1,81,30.09,10.0,ENE,3.5,-,N/A,,Clear,70,2013-08-17 03:53:00
11:53 PM,68.0,63.0,84,30.10,10.0,Calm,Calm,-,N/A,,Clear,0,2013-08-17 04:53:00